Location: Newark
(48.8604°N, 2.3376°E)
Time: 20:10:40
(UTC+00:00)

X-37B - Visible Passes

Search period start: 26 September 2021 00:00
Search period end: 06 October 2021 00:00
Orbit: 381 x 393 km, 45.0° (Epoch: 29 August)

Date Brightness Start Highest point End Pass type
(mag) Time Alt. Az. Time Alt. Az. Time Alt. Az.
26 Sep 1.6 04:17:04 26° SSW 04:18:08 35° S 04:21:05 10° ESE visible
27 Sep 2.9 03:21:20 19° ESE 03:21:20 19° ESE 03:22:40 10° ESE visible
27 Sep 1.4 04:53:37 13° WSW 04:56:11 41° S 04:59:11 10° ESE visible
28 Sep 1.3 03:57:54 40° S 03:57:54 40° S 04:00:53 10° ESE visible
29 Sep 3.7 03:02:12 12° ESE 03:02:12 12° ESE 03:02:32 10° ESE visible
29 Sep 1.4 04:34:29 23° WSW 04:35:56 37° S 04:38:53 10° ESE visible
30 Sep 2.3 03:38:49 28° SE 03:38:49 28° SE 03:40:39 10° ESE visible
30 Sep 2.1 05:11:16 10° WSW 05:13:54 24° SSW 05:16:31 10° SE visible
01 Oct 1.6 04:15:30 31° SSW 04:15:40 31° SSW 04:18:30 10° SE visible
02 Oct 3.5 03:19:58 13° ESE 03:19:58 13° ESE 03:20:21 10° ESE visible
02 Oct 2.5 04:52:16 14° SW 04:53:32 17° SSW 04:55:42 10° SSE visible
03 Oct 2.8 03:56:49 17° SSE 03:56:49 17° SSE 03:57:58 10° SE visible
04 Oct 3.0 04:33:47 11° SSW 04:33:47 11° SSW 04:34:13 10° S visible
